Orbital Elements
Epoch 2017 Nov. 23.0 TT = JDT 2458080.5
T 2017 Dec. 1.99872 TT Rudenko
q 2.7430344 (2000.0) P Q
n 0.11212491 Peri. 159.02390 +0.98413326 +0.02097382
a 4.2592648 Node 202.11611 -0.01300926 +0.99884568
e 0.3559841 Incl. 27.90317 +0.17695332 -0.04321360
P 8.79
From 437 observations 1898 July 17-2021 Feb. 24, mean residual 0".8.
Nongravitational parameters A1 = -0.05, A2 = +0.0025.
|